Year,Month,Day,Hour,Minute,Value (Times are PST for temperature in C)
2019,03,28,00,00,9.20
2019,03,28,00,01,9.20
2019,03,28,00,02,9.20
2019,03,28,00,03,9.20
2019,03,28,00,04,9.20
2019,03,28,00,05,9.20
2019,03,28,00,06,9.20
2019,03,28,00,07,9.20
2019,03,28,00,08,9.20
2019,03,28,00,09,9.20
2019,03,28,00,10,9.20
2019,03,28,00,11,9.20
2019,03,28,00,12,9.20
2019,03,28,00,13,9.20
2019,03,28,00,14,9.20
2019,03,28,00,15,9.20
2019,03,28,00,16,9.20
2019,03,28,00,17,9.20
2019,03,28,00,18,9.20
2019,03,28,00,19,9.20
2019,03,28,00,20,9.20
2019,03,28,00,21,9.20
2019,03,28,00,22,9.20
2019,03,28,00,23,9.20
2019,03,28,00,24,9.20
2019,03,28,00,25,9.20
2019,03,28,00,26,9.20
2019,03,28,00,27,9.20
2019,03,28,00,28,9.20
2019,03,28,00,29,9.20
2019,03,28,00,30,9.20
2019,03,28,00,31,9.20
2019,03,28,00,32,9.20
2019,03,28,00,33,9.20
2019,03,28,00,34,9.20
2019,03,28,00,35,9.20
2019,03,28,00,36,9.20
2019,03,28,00,37,9.20
2019,03,28,00,38,9.20
2019,03,28,00,39,9.20
2019,03,28,00,40,9.20
2019,03,28,00,41,9.20
2019,03,28,00,42,9.20
2019,03,28,00,43,9.20
2019,03,28,00,44,9.20
2019,03,28,00,45,9.20
2019,03,28,00,46,9.20
2019,03,28,00,47,9.20
2019,03,28,00,48,9.20
2019,03,28,00,49,9.20
2019,03,28,00,50,9.20
2019,03,28,00,51,9.20
2019,03,28,00,52,9.20
2019,03,28,00,53,9.20
2019,03,28,00,54,9.20
2019,03,28,00,55,9.20
2019,03,28,00,56,9.20
2019,03,28,00,57,9.20
2019,03,28,00,58,9.20
2019,03,28,00,59,9.20
2019,03,28,01,00,9.20
2019,03,28,01,01,9.20
2019,03,28,01,02,9.20
2019,03,28,01,03,9.20
2019,03,28,01,04,9.20
2019,03,28,01,05,9.20
2019,03,28,01,06,9.20
2019,03,28,01,07,9.30
2019,03,28,01,08,9.30
2019,03,28,01,09,9.30
2019,03,28,01,10,9.30
2019,03,28,01,11,9.40
2019,03,28,01,12,9.40
2019,03,28,01,13,9.40
2019,03,28,01,14,9.40
2019,03,28,01,15,9.40
2019,03,28,01,16,9.40
2019,03,28,01,17,9.50
2019,03,28,01,18,9.50
2019,03,28,01,19,9.50
2019,03,28,01,20,9.50
2019,03,28,01,21,9.60
2019,03,28,01,22,9.60
2019,03,28,01,23,9.60
2019,03,28,01,24,9.60
2019,03,28,01,25,9.60
2019,03,28,01,26,9.60
2019,03,28,01,27,9.60
2019,03,28,01,28,9.60
2019,03,28,01,29,9.60
2019,03,28,01,30,9.60
2019,03,28,01,31,9.60
2019,03,28,01,32,9.60
2019,03,28,01,33,9.60
2019,03,28,01,34,9.70
2019,03,28,01,35,9.70
2019,03,28,01,36,9.70
2019,03,28,01,37,9.70
2019,03,28,01,38,9.70
2019,03,28,01,39,9.70
2019,03,28,01,40,9.70
2019,03,28,01,41,9.80
2019,03,28,01,42,9.80
2019,03,28,01,43,9.80
2019,03,28,01,44,9.80
2019,03,28,01,45,9.90
2019,03,28,01,46,9.90
2019,03,28,01,47,9.90
2019,03,28,01,48,9.90
2019,03,28,01,49,9.90
2019,03,28,01,50,9.90
2019,03,28,01,51,9.90
2019,03,28,01,52,9.90
2019,03,28,01,53,9.90
2019,03,28,01,54,9.90
2019,03,28,01,55,9.90
2019,03,28,01,56,10.00
2019,03,28,01,57,10.10
2019,03,28,01,58,10.10
2019,03,28,01,59,10.10
2019,03,28,02,00,10.10
2019,03,28,02,01,10.10
2019,03,28,02,02,10.10
2019,03,28,02,03,10.20
2019,03,28,02,04,10.20
2019,03,28,02,05,10.20
2019,03,28,02,06,10.20
2019,03,28,02,07,10.20
2019,03,28,02,08,10.20
2019,03,28,02,09,10.20
2019,03,28,02,10,10.20
2019,03,28,02,11,10.20
2019,03,28,02,12,10.20
2019,03,28,02,13,10.20
2019,03,28,02,14,10.20
2019,03,28,02,15,10.20
2019,03,28,02,16,10.20
2019,03,28,02,17,10.20
2019,03,28,02,18,10.10
2019,03,28,02,19,10.10
2019,03,28,02,20,10.10
2019,03,28,02,21,10.10
2019,03,28,02,22,10.10
2019,03,28,02,23,10.10
2019,03,28,02,24,9.90
2019,03,28,02,25,9.90
2019,03,28,02,26,9.90
2019,03,28,02,27,9.90
2019,03,28,02,28,9.90
2019,03,28,02,29,9.80
2019,03,28,02,30,9.80
2019,03,28,02,31,9.80
2019,03,28,02,32,9.70
2019,03,28,02,33,9.70
2019,03,28,02,34,9.70
2019,03,28,02,35,9.70
2019,03,28,02,36,9.70
2019,03,28,02,37,9.70
2019,03,28,02,38,9.70
2019,03,28,02,39,9.70
2019,03,28,02,40,9.70
2019,03,28,02,41,9.70
2019,03,28,02,42,9.70
2019,03,28,02,43,9.70
2019,03,28,02,44,9.70
2019,03,28,02,45,9.70
2019,03,28,02,46,9.70
2019,03,28,02,47,9.70
2019,03,28,02,48,9.70
2019,03,28,02,49,9.70
2019,03,28,02,50,9.70
2019,03,28,02,51,9.70
2019,03,28,02,52,9.70
2019,03,28,02,53,9.80
2019,03,28,02,54,9.80
2019,03,28,02,55,9.80
2019,03,28,02,56,9.80
2019,03,28,02,57,9.80
2019,03,28,02,58,9.80
2019,03,28,02,59,9.80
2019,03,28,03,00,9.80
2019,03,28,03,01,9.70
2019,03,28,03,02,9.70
2019,03,28,03,03,9.70
2019,03,28,03,04,9.70
2019,03,28,03,05,9.70
2019,03,28,03,06,9.70
2019,03,28,03,07,9.70
2019,03,28,03,08,9.70
2019,03,28,03,09,9.70
2019,03,28,03,10,9.70
2019,03,28,03,11,9.60
2019,03,28,03,12,9.60
2019,03,28,03,13,9.60
2019,03,28,03,14,9.60
2019,03,28,03,15,9.50
2019,03,28,03,16,9.50
2019,03,28,03,17,9.50
2019,03,28,03,18,9.40
2019,03,28,03,19,9.40
2019,03,28,03,20,9.40
2019,03,28,03,21,9.40
2019,03,28,03,22,9.30
2019,03,28,03,23,9.30
2019,03,28,03,24,9.20
2019,03,28,03,25,9.20
2019,03,28,03,26,9.20
2019,03,28,03,27,9.20
2019,03,28,03,28,9.20
2019,03,28,03,29,9.20
2019,03,28,03,30,9.20
2019,03,28,03,31,9.20
2019,03,28,03,32,9.10
2019,03,28,03,33,9.10
2019,03,28,03,34,9.00
2019,03,28,03,35,9.00
2019,03,28,03,36,9.00
2019,03,28,03,37,9.00
2019,03,28,03,38,8.90
2019,03,28,03,39,8.90
2019,03,28,03,40,8.90
2019,03,28,03,41,8.90
2019,03,28,03,42,8.90
2019,03,28,03,43,8.90
2019,03,28,03,44,8.90
2019,03,28,03,45,8.90
2019,03,28,03,46,8.80
2019,03,28,03,47,8.80
2019,03,28,03,48,8.80
2019,03,28,03,49,8.80
2019,03,28,03,50,8.70
2019,03,28,03,51,8.70
2019,03,28,03,52,8.70
2019,03,28,03,53,8.70
2019,03,28,03,54,8.70
2019,03,28,03,55,8.70
2019,03,28,03,56,8.70
2019,03,28,03,57,8.70
2019,03,28,03,58,8.60
2019,03,28,03,59,8.60
2019,03,28,04,00,8.60
2019,03,28,04,01,8.50
2019,03,28,04,02,8.50
2019,03,28,04,03,8.50
2019,03,28,04,04,8.40
2019,03,28,04,05,8.40
2019,03,28,04,06,8.40
2019,03,28,04,07,8.40
2019,03,28,04,08,8.30
2019,03,28,04,09,8.30
2019,03,28,04,10,8.30
2019,03,28,04,11,8.30
2019,03,28,04,12,8.40
2019,03,28,04,13,8.40
2019,03,28,04,14,8.40
2019,03,28,04,15,8.40
2019,03,28,04,16,8.40
2019,03,28,04,17,8.40
2019,03,28,04,18,8.30
2019,03,28,04,19,8.30
2019,03,28,04,20,8.30
2019,03,28,04,21,8.30
2019,03,28,04,22,8.20
2019,03,28,04,23,8.20
2019,03,28,04,24,8.20
2019,03,28,04,25,8.20
2019,03,28,04,26,8.20
2019,03,28,04,27,8.20
2019,03,28,04,28,8.20
2019,03,28,04,29,8.20
2019,03,28,04,30,8.20
2019,03,28,04,31,8.20
2019,03,28,04,32,8.20
2019,03,28,04,33,8.20
2019,03,28,04,34,8.20
2019,03,28,04,35,8.20
2019,03,28,04,36,8.20
2019,03,28,04,37,8.20
2019,03,28,04,38,8.20
2019,03,28,04,39,8.20
2019,03,28,04,40,8.20
2019,03,28,04,41,8.20
2019,03,28,04,42,8.20
2019,03,28,04,43,8.20
2019,03,28,04,44,8.20
2019,03,28,04,45,8.20
2019,03,28,04,46,8.30
2019,03,28,04,47,8.30
2019,03,28,04,48,8.30
2019,03,28,04,49,8.30
2019,03,28,04,50,8.30
2019,03,28,04,51,8.30
2019,03,28,04,52,8.30
2019,03,28,04,53,8.30
2019,03,28,04,54,8.30
2019,03,28,04,55,8.30
2019,03,28,04,56,8.30
2019,03,28,04,57,8.30
2019,03,28,04,58,8.30
2019,03,28,04,59,8.30
2019,03,28,05,00,8.30
2019,03,28,05,01,8.30
2019,03,28,05,02,8.30
2019,03,28,05,03,8.20
2019,03,28,05,04,8.20
2019,03,28,05,05,8.20
2019,03,28,05,06,8.20
2019,03,28,05,07,8.20
2019,03,28,05,08,8.20
2019,03,28,05,09,8.20
2019,03,28,05,10,8.20
2019,03,28,05,11,8.10
2019,03,28,05,12,8.10
2019,03,28,05,13,8.10
2019,03,28,05,14,8.00
2019,03,28,05,15,8.00
2019,03,28,05,16,8.00
2019,03,28,05,17,8.00
2019,03,28,05,18,7.90
2019,03,28,05,19,7.90
2019,03,28,05,20,7.90
2019,03,28,05,21,7.90
2019,03,28,05,22,7.80
2019,03,28,05,23,7.80
2019,03,28,05,24,7.80
2019,03,28,05,25,7.80
2019,03,28,05,26,7.80
2019,03,28,05,27,7.80
2019,03,28,05,28,7.80
2019,03,28,05,29,7.80
2019,03,28,05,30,7.80
2019,03,28,05,31,7.80
2019,03,28,05,32,7.70
2019,03,28,05,33,7.70
2019,03,28,05,34,7.70
2019,03,28,05,35,7.70
2019,03,28,05,36,7.70
2019,03,28,05,37,7.70
2019,03,28,05,38,7.70
2019,03,28,05,39,7.70
2019,03,28,05,40,7.80
2019,03,28,05,41,7.80
2019,03,28,05,42,7.80
2019,03,28,05,43,7.80
2019,03,28,05,44,7.80
2019,03,28,05,45,7.70
2019,03,28,05,46,7.60
2019,03,28,05,47,7.60
2019,03,28,05,48,7.60
2019,03,28,05,49,7.50
2019,03,28,05,50,7.50
2019,03,28,05,51,7.40
2019,03,28,05,52,7.40
2019,03,28,05,53,7.40
2019,03,28,05,54,7.30
2019,03,28,05,55,7.30
2019,03,28,05,56,7.30
2019,03,28,05,57,7.30
2019,03,28,05,58,7.30
2019,03,28,05,59,7.30
2019,03,28,06,00,7.30
2019,03,28,06,01,7.30
2019,03,28,06,02,7.30
2019,03,28,06,03,7.30
2019,03,28,06,04,7.30
2019,03,28,06,05,7.30
2019,03,28,06,06,7.30
2019,03,28,06,07,7.30
2019,03,28,06,08,7.20
2019,03,28,06,09,7.20
2019,03,28,06,10,7.20
2019,03,28,06,11,7.20
2019,03,28,06,12,7.20
2019,03,28,06,13,7.20
2019,03,28,06,14,7.30
2019,03,28,06,15,7.30
2019,03,28,06,16,7.30
2019,03,28,06,17,7.30
2019,03,28,06,18,7.30
2019,03,28,06,19,7.30
2019,03,28,06,20,7.30
2019,03,28,06,21,7.30
2019,03,28,06,22,7.30
2019,03,28,06,23,7.30
2019,03,28,06,24,7.30
2019,03,28,06,25,7.30
2019,03,28,06,26,7.30
2019,03,28,06,27,7.30
2019,03,28,06,28,7.30
2019,03,28,06,29,7.30
2019,03,28,06,30,7.30
2019,03,28,06,31,7.30
2019,03,28,06,32,7.30
2019,03,28,06,33,7.30
2019,03,28,06,34,7.30
2019,03,28,06,35,7.30
2019,03,28,06,36,7.30
2019,03,28,06,37,7.30
2019,03,28,06,38,7.30
2019,03,28,06,39,7.30
2019,03,28,06,40,7.40
2019,03,28,06,41,7.40
2019,03,28,06,42,7.40
2019,03,28,06,43,7.50
2019,03,28,06,44,7.50
2019,03,28,06,45,7.50
2019,03,28,06,46,7.60
2019,03,28,06,47,7.60
2019,03,28,06,48,7.60
2019,03,28,06,49,7.60
2019,03,28,06,50,7.60
2019,03,28,06,51,7.70
2019,03,28,06,52,7.70
2019,03,28,06,53,7.70
2019,03,28,06,54,7.70
2019,03,28,06,55,7.70
2019,03,28,06,56,7.70
2019,03,28,06,57,7.80
2019,03,28,06,58,7.80
2019,03,28,06,59,7.80
2019,03,28,07,00,7.80
2019,03,28,07,01,7.80
2019,03,28,07,02,7.80
2019,03,28,07,03,7.80
2019,03,28,07,04,7.80
2019,03,28,07,05,7.80
2019,03,28,07,06,7.80
2019,03,28,07,07,7.80
2019,03,28,07,08,7.80
2019,03,28,07,09,7.80
2019,03,28,07,10,7.80
2019,03,28,07,11,7.80
2019,03,28,07,12,7.80
2019,03,28,07,13,7.80
2019,03,28,07,14,7.90
2019,03,28,07,15,7.90
2019,03,28,07,16,7.90
2019,03,28,07,17,7.90
2019,03,28,07,18,7.90
2019,03,28,07,19,7.90
2019,03,28,07,20,7.90
2019,03,28,07,21,7.90
2019,03,28,07,22,7.90
2019,03,28,07,23,7.90
2019,03,28,07,24,7.90
2019,03,28,07,25,7.90
2019,03,28,07,26,7.90
2019,03,28,07,27,7.90
2019,03,28,07,28,7.90
2019,03,28,07,29,7.90
2019,03,28,07,30,7.90
2019,03,28,07,31,7.90
2019,03,28,07,32,7.90
2019,03,28,07,33,7.90
2019,03,28,07,34,8.00
2019,03,28,07,35,8.00
2019,03,28,07,36,8.00
2019,03,28,07,37,8.00
2019,03,28,07,38,8.00
2019,03,28,07,39,8.00
2019,03,28,07,40,8.00
2019,03,28,07,41,8.00
2019,03,28,07,42,8.00
2019,03,28,07,43,8.00
2019,03,28,07,44,8.00
2019,03,28,07,45,8.00
2019,03,28,07,46,8.00
2019,03,28,07,47,8.00
2019,03,28,07,48,8.10
2019,03,28,07,49,8.10
2019,03,28,07,50,8.10
2019,03,28,07,51,8.10
2019,03,28,07,52,8.10
2019,03,28,07,53,8.10
2019,03,28,07,54,8.10
2019,03,28,07,55,8.10
2019,03,28,07,56,8.10
2019,03,28,07,57,8.10
2019,03,28,07,58,8.10
2019,03,28,07,59,8.10
2019,03,28,08,00,8.10
2019,03,28,08,01,8.10
2019,03,28,08,02,8.10
2019,03,28,08,03,8.20
2019,03,28,08,04,8.20
2019,03,28,08,05,8.20
2019,03,28,08,06,8.20
2019,03,28,08,07,8.20
2019,03,28,08,08,8.20
2019,03,28,08,09,8.20
2019,03,28,08,10,8.20
2019,03,28,08,11,8.20
2019,03,28,08,12,8.20
2019,03,28,08,13,8.20
2019,03,28,08,14,8.20
2019,03,28,08,15,8.20
2019,03,28,08,16,8.20
2019,03,28,08,17,8.30
2019,03,28,08,18,8.30
2019,03,28,08,19,8.30
2019,03,28,08,20,8.30
2019,03,28,08,21,8.30
2019,03,28,08,22,8.30
2019,03,28,08,23,8.30
2019,03,28,08,24,8.30
2019,03,28,08,25,8.30
2019,03,28,08,26,8.30
2019,03,28,08,27,8.30
2019,03,28,08,28,8.40
2019,03,28,08,29,8.40
2019,03,28,08,30,8.40
2019,03,28,08,31,8.40
2019,03,28,08,32,8.40
2019,03,28,08,33,8.40
2019,03,28,08,34,8.40
2019,03,28,08,35,8.40
2019,03,28,08,36,8.50
2019,03,28,08,37,8.50
2019,03,28,08,38,8.60
2019,03,28,08,39,8.70
2019,03,28,08,40,8.70
2019,03,28,08,41,8.70
2019,03,28,08,42,8.80
2019,03,28,08,43,8.90
2019,03,28,08,44,8.90
2019,03,28,08,45,9.00
2019,03,28,08,46,9.00
2019,03,28,08,47,9.10
2019,03,28,08,48,9.10
2019,03,28,08,49,9.20
2019,03,28,08,50,9.20
2019,03,28,08,51,9.20
2019,03,28,08,52,9.20
2019,03,28,08,53,9.20
2019,03,28,08,54,9.20
2019,03,28,08,55,9.30
2019,03,28,08,56,9.30
2019,03,28,08,57,9.30
2019,03,28,08,58,9.40
2019,03,28,08,59,9.40
2019,03,28,09,00,9.50
2019,03,28,09,01,9.60
2019,03,28,09,02,9.70
2019,03,28,09,03,9.70
2019,03,28,09,04,9.70
2019,03,28,09,05,9.80
2019,03,28,09,06,9.80
2019,03,28,09,07,9.90
2019,03,28,09,08,9.90
2019,03,28,09,09,9.90
2019,03,28,09,10,9.90
2019,03,28,09,11,9.90
2019,03,28,09,12,9.90
2019,03,28,09,13,9.90
2019,03,28,09,14,9.90
2019,03,28,09,15,9.90
2019,03,28,09,16,9.90
2019,03,28,09,17,9.90
2019,03,28,09,18,9.90
2019,03,28,09,19,9.90
2019,03,28,09,20,9.90
2019,03,28,09,21,9.90
2019,03,28,09,22,10.00
2019,03,28,09,23,10.10
2019,03,28,09,24,10.10
2019,03,28,09,25,10.10
2019,03,28,09,26,10.10
2019,03,28,09,27,10.10
2019,03,28,09,28,10.10
2019,03,28,09,29,10.10
2019,03,28,09,30,10.20
2019,03,28,09,31,10.20
2019,03,28,09,32,10.20
2019,03,28,09,33,10.20
2019,03,28,09,34,10.10
2019,03,28,09,35,10.10
2019,03,28,09,36,10.10
2019,03,28,09,37,10.10
2019,03,28,09,38,10.10
2019,03,28,09,39,10.10
2019,03,28,09,40,10.10
2019,03,28,09,41,10.10
2019,03,28,09,42,10.20
2019,03,28,09,43,10.20
2019,03,28,09,44,10.30
2019,03,28,09,45,10.30
2019,03,28,09,46,10.30
2019,03,28,09,47,10.40
2019,03,28,09,48,10.40
2019,03,28,09,49,10.40
2019,03,28,09,50,10.40
2019,03,28,09,51,10.30
2019,03,28,09,52,10.30
2019,03,28,09,53,10.30
2019,03,28,09,54,10.30
2019,03,28,09,55,10.30
2019,03,28,09,56,10.30
2019,03,28,09,57,10.30
2019,03,28,09,58,10.30
2019,03,28,09,59,10.30
2019,03,28,10,00,10.30
2019,03,28,10,01,10.30
2019,03,28,10,02,10.20
2019,03,28,10,03,10.20
2019,03,28,10,04,10.20
2019,03,28,10,05,10.20
2019,03,28,10,06,10.20
2019,03,28,10,07,10.20
2019,03,28,10,08,10.30
2019,03,28,10,09,10.30
2019,03,28,10,10,10.30
2019,03,28,10,11,10.40
2019,03,28,10,12,10.40
2019,03,28,10,13,10.40
2019,03,28,10,14,10.50
2019,03,28,10,15,10.60
2019,03,28,10,16,10.60
2019,03,28,10,17,10.60
2019,03,28,10,18,10.60
2019,03,28,10,19,10.60
2019,03,28,10,20,10.60
2019,03,28,10,21,10.60
2019,03,28,10,22,10.60
2019,03,28,10,23,10.60
2019,03,28,10,24,10.60
2019,03,28,10,25,10.50
2019,03,28,10,26,10.40
2019,03,28,10,27,10.50
2019,03,28,10,28,10.60
2019,03,28,10,29,10.60
2019,03,28,10,30,10.70
2019,03,28,10,31,10.70
2019,03,28,10,32,10.80
2019,03,28,10,33,10.80
2019,03,28,10,34,10.80
2019,03,28,10,35,10.80
2019,03,28,10,36,10.70
2019,03,28,10,37,10.70
2019,03,28,10,38,10.60
2019,03,28,10,39,10.70
2019,03,28,10,40,10.90
2019,03,28,10,41,10.90
2019,03,28,10,42,11.00
2019,03,28,10,43,11.10
2019,03,28,10,44,11.20
2019,03,28,10,45,11.20
2019,03,28,10,46,11.20
2019,03,28,10,47,11.20
2019,03,28,10,48,11.10
2019,03,28,10,49,11.00
2019,03,28,10,50,10.90
2019,03,28,10,51,10.90
2019,03,28,10,52,10.90
2019,03,28,10,53,10.90
2019,03,28,10,54,10.90
2019,03,28,10,55,10.90
2019,03,28,10,56,10.90
2019,03,28,10,57,10.90
2019,03,28,10,58,10.90
2019,03,28,10,59,10.90
2019,03,28,11,00,10.90
2019,03,28,11,01,10.90
2019,03,28,11,02,10.90
2019,03,28,11,03,10.90
2019,03,28,11,04,10.90
2019,03,28,11,05,10.90
2019,03,28,11,06,10.90
2019,03,28,11,07,11.00
2019,03,28,11,08,11.10
2019,03,28,11,09,11.10
2019,03,28,11,10,11.10
2019,03,28,11,11,11.10
2019,03,28,11,12,11.10
2019,03,28,11,13,11.10
2019,03,28,11,14,11.10
2019,03,28,11,15,11.00
2019,03,28,11,16,10.90
2019,03,28,11,17,10.90
2019,03,28,11,18,10.80
2019,03,28,11,19,10.70
2019,03,28,11,20,10.60
2019,03,28,11,21,10.60
2019,03,28,11,22,10.60
2019,03,28,11,23,10.60
2019,03,28,11,24,10.60
2019,03,28,11,25,10.60
2019,03,28,11,26,10.60
2019,03,28,11,27,10.60
2019,03,28,11,28,10.60
2019,03,28,11,29,10.70
2019,03,28,11,30,10.70
2019,03,28,11,31,10.80
2019,03,28,11,32,10.80
2019,03,28,11,33,10.90
2019,03,28,11,34,10.90
2019,03,28,11,35,10.90
2019,03,28,11,36,10.90
2019,03,28,11,37,10.80
2019,03,28,11,38,10.80
2019,03,28,11,39,10.70
2019,03,28,11,40,10.70
2019,03,28,11,41,10.70
2019,03,28,11,42,10.70
2019,03,28,11,43,10.70
2019,03,28,11,44,10.70
2019,03,28,11,45,10.80
2019,03,28,11,46,10.80
2019,03,28,11,47,10.80
2019,03,28,11,48,10.80
2019,03,28,11,49,10.80
2019,03,28,11,50,10.90
2019,03,28,11,51,10.80
2019,03,28,11,52,10.80
2019,03,28,11,53,10.80
2019,03,28,11,54,10.80
2019,03,28,11,55,10.80
2019,03,28,11,56,10.80
2019,03,28,11,57,10.80
2019,03,28,11,58,10.80
2019,03,28,11,59,10.80
2019,03,28,12,00,10.90
2019,03,28,12,01,11.00
2019,03,28,12,02,11.10
2019,03,28,12,03,11.10
2019,03,28,12,04,11.10
2019,03,28,12,05,11.10
2019,03,28,12,06,11.20
2019,03,28,12,07,11.20
2019,03,28,12,08,11.20
2019,03,28,12,09,11.20
2019,03,28,12,10,11.10
2019,03,28,12,11,11.10
2019,03,28,12,12,11.00
2019,03,28,12,13,11.00
2019,03,28,12,14,11.10
2019,03,28,12,15,11.10
2019,03,28,12,16,11.20
2019,03,28,12,17,11.20
2019,03,28,12,18,11.20
2019,03,28,12,19,11.20
2019,03,28,12,20,11.20
2019,03,28,12,21,11.20
2019,03,28,12,22,11.20
2019,03,28,12,23,11.20
2019,03,28,12,24,11.30
2019,03,28,12,25,11.30
2019,03,28,12,26,11.30
2019,03,28,12,27,11.40
2019,03,28,12,28,11.40
2019,03,28,12,29,11.50
2019,03,28,12,30,11.60
2019,03,28,12,31,11.60
2019,03,28,12,32,11.70
2019,03,28,12,33,11.70
2019,03,28,12,34,11.70
2019,03,28,12,35,11.70
2019,03,28,12,36,11.60
2019,03,28,12,37,11.60
2019,03,28,12,38,11.70
2019,03,28,12,39,11.80
2019,03,28,12,40,11.90
2019,03,28,12,41,11.90
2019,03,28,12,42,11.90
2019,03,28,12,43,11.90
2019,03,28,12,44,11.90
2019,03,28,12,45,11.90
2019,03,28,12,46,12.00
2019,03,28,12,47,12.00
2019,03,28,12,48,12.00
2019,03,28,12,49,12.00
2019,03,28,12,50,12.10
2019,03,28,12,51,12.20
2019,03,28,12,52,12.20
2019,03,28,12,53,12.20
2019,03,28,12,54,12.20
2019,03,28,12,55,12.10
2019,03,28,12,56,12.10
2019,03,28,12,57,12.00
2019,03,28,12,58,12.00
2019,03,28,12,59,12.00
2019,03,28,13,00,12.00
2019,03,28,13,01,12.00
2019,03,28,13,02,12.00
2019,03,28,13,03,12.10
2019,03,28,13,04,12.10
2019,03,28,13,05,12.20
2019,03,28,13,06,12.20
2019,03,28,13,07,12.20
2019,03,28,13,08,12.10
2019,03,28,13,09,12.00
2019,03,28,13,10,12.00
2019,03,28,13,11,12.00
2019,03,28,13,12,12.10
2019,03,28,13,13,12.10
2019,03,28,13,14,12.10
2019,03,28,13,15,12.10
2019,03,28,13,16,12.10
2019,03,28,13,17,12.10
2019,03,28,13,18,12.00
2019,03,28,13,19,12.00
2019,03,28,13,20,12.00
2019,03,28,13,21,12.00
2019,03,28,13,22,12.00
2019,03,28,13,23,12.00
2019,03,28,13,24,12.00
2019,03,28,13,25,12.00
2019,03,28,13,26,12.10
2019,03,28,13,27,12.10
2019,03,28,13,28,12.10
2019,03,28,13,29,12.10
2019,03,28,13,30,12.10
2019,03,28,13,31,12.10
2019,03,28,13,32,12.20
2019,03,28,13,33,12.20
2019,03,28,13,34,12.20
2019,03,28,13,35,12.30
2019,03,28,13,36,12.30
2019,03,28,13,37,12.30
2019,03,28,13,38,12.30
2019,03,28,13,39,12.40
2019,03,28,13,40,12.40
2019,03,28,13,41,12.50
2019,03,28,13,42,12.50
2019,03,28,13,43,12.60
2019,03,28,13,44,12.60
2019,03,28,13,45,12.70
2019,03,28,13,46,12.80
2019,03,28,13,47,12.90
2019,03,28,13,48,12.90
2019,03,28,13,49,13.00
2019,03,28,13,50,13.00
2019,03,28,13,51,13.00
2019,03,28,13,52,13.00
2019,03,28,13,53,13.10
2019,03,28,13,54,13.10
2019,03,28,13,55,13.10
2019,03,28,13,56,13.10
2019,03,28,13,57,13.20
2019,03,28,13,58,13.30
2019,03,28,13,59,13.30
2019,03,28,14,00,13.20
2019,03,28,14,01,13.20
2019,03,28,14,02,13.20
2019,03,28,14,03,13.20
2019,03,28,14,04,13.10
2019,03,28,14,05,13.00
2019,03,28,14,06,13.00
2019,03,28,14,07,13.00
2019,03,28,14,08,13.00
2019,03,28,14,09,13.10
2019,03,28,14,10,13.20
2019,03,28,14,11,13.30
2019,03,28,14,12,13.30
2019,03,28,14,13,13.30
2019,03,28,14,14,13.30
2019,03,28,14,15,13.30
2019,03,28,14,16,13.30
2019,03,28,14,17,13.30
2019,03,28,14,18,13.30
2019,03,28,14,19,13.30
2019,03,28,14,20,13.20
2019,03,28,14,21,13.20
2019,03,28,14,22,13.20
2019,03,28,14,23,13.20
2019,03,28,14,24,13.20
2019,03,28,14,25,13.30
2019,03,28,14,26,13.30
2019,03,28,14,27,13.30
2019,03,28,14,28,13.30
2019,03,28,14,29,13.30
2019,03,28,14,30,13.30
2019,03,28,14,31,13.30
2019,03,28,14,32,13.30
2019,03,28,14,33,13.30
2019,03,28,14,34,13.30
2019,03,28,14,35,13.30
2019,03,28,14,36,13.30
2019,03,28,14,37,13.30
2019,03,28,14,38,13.30
2019,03,28,14,39,13.50
2019,03,28,14,40,13.50
2019,03,28,14,41,13.60
2019,03,28,14,42,13.60
2019,03,28,14,43,13.60
2019,03,28,14,44,13.60
2019,03,28,14,45,13.70
2019,03,28,14,46,13.70
2019,03,28,14,47,13.70
2019,03,28,14,48,13.70
2019,03,28,14,49,13.70
2019,03,28,14,50,13.70
2019,03,28,14,51,13.70
2019,03,28,14,52,13.70
2019,03,28,14,53,13.70
2019,03,28,14,54,13.70
2019,03,28,14,55,13.70
2019,03,28,14,56,13.70
2019,03,28,14,57,13.70
2019,03,28,14,58,13.70
2019,03,28,14,59,13.70
2019,03,28,15,00,13.70
2019,03,28,15,01,13.80
2019,03,28,15,02,13.80
2019,03,28,15,03,13.90
2019,03,28,15,04,13.90
2019,03,28,15,05,13.90
2019,03,28,15,06,13.90
2019,03,28,15,07,13.90
2019,03,28,15,08,13.90
2019,03,28,15,09,13.90
2019,03,28,15,10,13.90
2019,03,28,15,11,13.80
2019,03,28,15,12,13.80
2019,03,28,15,13,13.70
2019,03,28,15,14,13.70
2019,03,28,15,15,13.70
2019,03,28,15,16,13.60
2019,03,28,15,17,13.60
2019,03,28,15,18,13.60
2019,03,28,15,19,13.70
2019,03,28,15,20,13.80
2019,03,28,15,21,13.90
2019,03,28,15,22,13.90
2019,03,28,15,23,14.00
2019,03,28,15,24,14.00
2019,03,28,15,25,14.10
2019,03,28,15,26,14.10
2019,03,28,15,27,14.20
2019,03,28,15,28,14.20
2019,03,28,15,29,14.20
2019,03,28,15,30,14.20
2019,03,28,15,31,14.20
2019,03,28,15,32,14.20
2019,03,28,15,33,14.20
2019,03,28,15,34,14.20
2019,03,28,15,35,14.20
2019,03,28,15,36,14.20
2019,03,28,15,37,14.30
2019,03,28,15,38,14.30
2019,03,28,15,39,14.40
2019,03,28,15,40,14.50
2019,03,28,15,41,14.50
2019,03,28,15,42,14.50
2019,03,28,15,43,14.60
2019,03,28,15,44,14.60
2019,03,28,15,45,14.60
2019,03,28,15,46,14.60
2019,03,28,15,47,14.60
2019,03,28,15,48,14.60
2019,03,28,15,49,14.50
2019,03,28,15,50,14.50
2019,03,28,15,51,14.50
2019,03,28,15,52,14.50
2019,03,28,15,53,14.50
2019,03,28,15,54,14.50
2019,03,28,15,55,14.50
2019,03,28,15,56,14.50
2019,03,28,15,57,14.50
2019,03,28,15,58,14.60
2019,03,28,15,59,14.50
2019,03,28,16,00,14.50
2019,03,28,16,01,14.50
2019,03,28,16,02,14.50
2019,03,28,16,03,14.50
2019,03,28,16,04,14.50
2019,03,28,16,05,14.50
2019,03,28,16,06,14.50
2019,03,28,16,07,14.50
2019,03,28,16,08,14.50
2019,03,28,16,09,14.50
2019,03,28,16,10,14.50
2019,03,28,16,11,14.50
2019,03,28,16,12,14.60
2019,03,28,16,13,14.60
2019,03,28,16,14,14.70
2019,03,28,16,15,14.80
2019,03,28,16,16,14.80
2019,03,28,16,17,14.90
2019,03,28,16,18,15.00
2019,03,28,16,19,15.10
2019,03,28,16,20,15.10
2019,03,28,16,21,15.20
2019,03,28,16,22,15.30
2019,03,28,16,23,15.40
2019,03,28,16,24,15.40
2019,03,28,16,25,15.50
2019,03,28,16,26,15.50
2019,03,28,16,27,15.50
2019,03,28,16,28,15.50
2019,03,28,16,29,15.50
2019,03,28,16,30,15.50
2019,03,28,16,31,15.50
2019,03,28,16,32,15.40
2019,03,28,16,33,15.40
2019,03,28,16,34,15.30
2019,03,28,16,35,15.30
2019,03,28,16,36,15.30
2019,03,28,16,37,15.30
2019,03,28,16,38,15.30
2019,03,28,16,39,15.30
2019,03,28,16,40,15.30
2019,03,28,16,41,15.30
2019,03,28,16,42,15.40
2019,03,28,16,43,15.50
2019,03,28,16,44,15.60
2019,03,28,16,45,15.60
2019,03,28,16,46,15.60
2019,03,28,16,47,15.60
2019,03,28,16,48,15.50
2019,03,28,16,49,15.50
2019,03,28,16,50,15.50
2019,03,28,16,51,15.50
2019,03,28,16,52,15.60
2019,03,28,16,53,15.60
2019,03,28,16,54,15.60
2019,03,28,16,55,15.70
2019,03,28,16,56,15.70
2019,03,28,16,57,15.70
2019,03,28,16,58,15.70
2019,03,28,16,59,15.70
2019,03,28,17,00,15.70
2019,03,28,17,01,15.60
2019,03,28,17,02,15.60
2019,03,28,17,03,15.60
2019,03,28,17,04,15.60
2019,03,28,17,05,15.70
2019,03,28,17,06,15.70
2019,03,28,17,07,15.80
2019,03,28,17,08,15.90
2019,03,28,17,09,15.90
2019,03,28,17,10,16.00
2019,03,28,17,11,16.10
2019,03,28,17,12,16.10
2019,03,28,17,13,16.10
2019,03,28,17,14,16.10
2019,03,28,17,15,16.20
2019,03,28,17,16,16.20
2019,03,28,17,17,16.30
2019,03,28,17,18,16.30
2019,03,28,17,19,16.30
2019,03,28,17,20,16.20
2019,03,28,17,21,16.20
2019,03,28,17,22,16.30
2019,03,28,17,23,16.20
2019,03,28,17,24,16.20
2019,03,28,17,25,16.10
2019,03,28,17,26,16.10
2019,03,28,17,27,16.00
2019,03,28,17,28,15.90
2019,03,28,17,29,15.90
2019,03,28,17,30,15.90
2019,03,28,17,31,15.80
2019,03,28,17,32,15.80
2019,03,28,17,33,15.80
2019,03,28,17,34,15.80
2019,03,28,17,35,15.80
2019,03,28,17,36,15.80
2019,03,28,17,37,15.80
2019,03,28,17,38,15.80
2019,03,28,17,39,15.70
2019,03,28,17,40,15.60
2019,03,28,17,41,15.50
2019,03,28,17,42,15.40